Theta_e
280 279 279 278 278 278 278 277 276 275 275 275 274 274 274 274 274 273 273 273 272 273 272 271 271 271 271 271 271 271 270 270 270 270 270 270 271 271 271 271 271 271 272 272 272 272 272 272 272 272 271 271 270 270 270 271 271 271 271 272 273 274
279 279 278 277 277 277 276 276 275 275 274 275 274 274 274 273 272 272 272 272 272 271 271 271 271 271 271 270 270 269 269 269 269 269 269 270 271 271 271 271 271 271 271 271 271 271 272 271 271 271 271 270 270 270 270 270 271 270 270 271 273 274
279 278 278 278 277 277 276 275 275 275 274 273 274 273 272 272 272 272 271 271 271 271 270 270 270 270 270 269 269 269 269 269 270 270 270 270 270 270 270 270 270 271 271 271 271 271 270 270 270 270 270 269 269 270 270 270 270 270 271 271 272 275
278 278 277 277 276 276 275 275 274 274 273 273 273 272 272 271 271 271 271 271 271 270 270 269 269 269 269 269 268 268 268 269 269 269 270 269 270 270 270 270 270 270 270 270 269 269 269 269 269 269 269 269 269 269 270 270 271 271 271 271 271 273
278 277 277 276 276 276 275 274 274 274 273 273 272 272 271 271 271 271 270 270 269 269 269 269 269 268 268 268 268 268 268 268 269 269 269 269 269 270 270 270 269 269 269 269 269 268 268 268 269 269 269 269 269 269 269 270 271 271 271 271 271 271
277 277 276 276 276 275 274 274 273 273 273 272 272 271 271 271 270 270 270 269 269 269 268 268 268 268 267 267 267 267 268 268 268 269 269 269 269 268 269 269 269 268 268 268 268 268 268 268 268 268 268 268 268 268 269 269 269 270 271 272 272 272
276 277 276 276 275 275 274 273 273 272 272 272 271 271 271 270 270 269 269 268 268 268 267 267 267 267 267 267 267 267 267 267 268 268 268 268 267 267 267 267 268 268 267 267 267 267 267 267 267 267 267 268 268 269 269 269 269 269 270 270 271 274
277 276 276 276 275 274 274 273 272 272 271 271 271 270 270 269 269 269 268 268 267 267 266 266 266 266 266 266 266 266 267 267 267 267 267 267 266 266 267 267 267 267 267 267 267 267 267 267 267 267 267 268 268 268 269 269 269 269 269 270 271 272
276 276 276 276 275 274 273 272 272 271 271 270 270 269 269 269 268 268 267 266 266 266 266 266 266 266 266 266 266 266 267 266 266 266 265 266 265 265 265 265 265 266 266 266 266 266 266 267 267 267 267 268 268 268 269 269 269 269 270 270 271 271
276 276 275 275 274 273 273 272 271 271 270 269 269 269 268 268 267 267 266 266 265 265 265 266 266 265 265 266 266 266 266 265 265 264 264 265 264 264 264 264 265 265 266 266 266 266 266 267 267 267 268 268 268 268 269 269 269 269 269 270 270 271
276 275 275 274 273 272 272 271 270 270 269 269 268 268 267 267 266 266 265 265 265 265 265 265 265 265 265 265 265 264 264 264 263 264 264 264 264 264 264 265 265 265 265 266 266 266 267 267 267 268 268 268 268 269 269 269 269 269 269 270 271 271
276 275 274 274 273 272 271 270 269 269 268 268 268 267 267 266 265 265 264 264 264 264 265 264 264 264 264 264 263 263 262 262 262 262 262 263 263 264 264 264 265 265 265 265 266 266 267 267 268 270 273 274 271 271 271 271 271 270 271 271 272 273
275 275 274 274 273 272 270 269 268 267 268 268 267 266 266 265 264 264 263 263 264 264 264 263 263 263 262 262 261 261 261 261 261 261 261 262 263 263 264 265 265 265 266 266 266 266 267 267 268 272 275 276 277 274 273 273 273 273 272 272 272 272
275 275 274 273 272 271 269 268 267 267 267 267 266 266 265 264 263 263 262 263 263 263 263 262 262 261 260 260 260 260 260 260 260 260 261 262 262 263 264 265 265 266 266 265 266 266 266 267 271 274 275 276 277 277 275 274 274 274 273 273 273 273
276 275 274 272 271 269 268 268 267 266 266 265 265 264 263 263 262 262 262 262 262 262 261 261 260 259 259 259 259 259 259 259 260 260 261 261 263 264 264 264 264 264 265 265 264 265 266 266 271 274 275 276 277 278 277 275 275 274 274 274 274 273
275 274 273 271 270 269 268 267 266 266 265 265 264 263 263 262 262 261 261 261 261 261 260 259 258 258 258 258 258 258 258 259 259 260 262 263 263 263 263 263 263 264 264 264 264 264 265 266 270 274 276 277 278 279 279 276 276 275 274 274 274 274
274 272 271 269 269 267 267 266 265 264 264 264 263 263 262 261 261 260 261 260 260 259 259 258 258 257 257 257 258 258 258 258 259 261 262 262 263 262 262 262 262 262 263 263 264 264 265 266 272 274 276 277 278 279 279 277 276 276 275 275 275 275
273 271 269 269 267 266 265 265 264 263 263 263 262 261 261 260 259 260 259 259 258 258 258 257 256 256 256 257 257 257 258 259 260 260 261 262 262 262 263 262 262 262 262 263 263 264 264 266 273 274 276 277 278 280 278 277 276 275 275 275 275 275
272 270 268 267 266 265 264 264 263 263 262 261 261 260 260 260 258 259 258 258 258 257 257 257 256 255 256 256 256 256 257 258 259 260 261 261 261 261 261 261 261 262 262 262 263 264 264 266 270 274 276 277 279 279 277 277 276 275 275 275 275 276
270 268 266 265 264 264 263 263 262 262 261 260 260 259 259 259 258 258 257 257 257 256 256 256 255 255 255 255 255 256 258 259 260 260 261 260 260 260 260 261 261 262 262 263 263 265 265 267 270 274 276 277 278 278 275 276 275 274 274 275 275 275
267 266 265 264 262 262 262 262 261 260 260 260 259 259 258 258 258 257 256 256 256 256 255 255 255 255 254 255 256 256 257 258 259 260 260 260 260 260 260 261 261 262 263 264 265 268 268 267 269 274 275 277 278 276 275 276 276 274 274 275 275 275
265 264 263 262 262 262 261 260 260 260 259 259 259 258 258 258 257 257 257 256 255 255 254 255 254 254 254 255 256 257 258 259 259 259 259 259 260 260 260 261 261 262 263 265 265 266 267 267 269 271 276 276 277 278 276 276 275 274 274 275 274 274
265 264 264 263 262 261 261 260 259 259 259 259 258 258 258 258 257 256 255 254 254 254 254 254 254 254 254 255 256 257 258 258 258 258 258 258 259 260 260 261 262 263 264 265 265 266 268 269 270 271 275 275 276 277 277 275 275 276 276 275 275 275
264 263 263 262 261 261 260 260 259 259 258 258 257 258 258 257 256 255 254 253 253 253 253 253 254 254 254 255 256 256 257 258 258 258 258 259 259 259 260 261 263 263 264 265 266 267 268 270 272 270 272 275 276 277 278 275 275 277 277 276 275 276
262 262 261 261 261 260 260 259 258 258 258 257 258 257 257 256 255 254 253 252 251 251 252 253 253 253 254 255 256 256 256 257 257 257 258 258 259 260 261 262 263 263 264 265 265 266 268 269 269 272 271 274 275 277 278 278 277 279 277 276 276 276
262 261 260 260 260 260 259 258 258 258 257 258 258 257 256 255 253 253 251 250 250 251 252 252 253 254 254 255 256 255 255 256 256 257 257 258 260 260 261 262 263 264 264 264 265 266 268 268 268 270 272 272 275 276 278 278 279 279 277 277 277 278
261 260 259 259 259 259 258 258 257 257 257 258 257 256 255 253 252 250 249 249 249 249 251 252 253 254 254 254 255 255 255 255 256 256 257 259 260 261 261 262 264 264 263 264 264 265 267 267 268 268 270 273 274 276 277 277 278 278 279 276 277 278
260 259 258 258 258 258 258 258 257 256 258 257 256 255 253 252 250 249 248 248 249 249 250 251 253 254 255 254 255 255 255 255 255 256 257 259 260 261 261 262 264 264 264 264 264 265 266 267 267 267 268 271 273 274 275 276 277 277 277 278 277 279
259 258 258 257 258 257 257 257 257 257 257 255 255 254 252 250 249 249 248 247 248 248 249 251 253 254 254 254 254 254 255 255 255 256 258 259 260 261 262 264 264 264 264 264 264 265 266 266 266 267 268 270 270 271 272 272 273 276 276 276 276 278
259 258 258 258 258 257 257 256 256 256 255 255 254 252 250 249 250 248 247 247 249 249 250 251 255 254 253 253 254 254 254 254 255 257 258 259 260 261 263 264 264 264 264 264 264 265 265 265 265 266 267 269 270 270 271 271 272 272 273 274 275 277
259 258 258 258 258 257 256 255 255 255 255 254 252 251 249 249 250 248 247 249 249 250 251 251 250 252 252 252 253 254 255 254 256 258 259 261 263 264 265 264 264 265 266 265 264 264 264 264 265 267 272 270 273 271 270 270 271 272 273 275 278 278
259 258 258 258 257 256 255 254 254 254 254 253 252 250 249 248 248 247 247 248 248 249 251 251 251 250 252 251 252 253 254 258 263 262 261 261 266 269 270 270 266 266 267 266 266 267 265 265 266 272 273 273 273 274 274 274 274 275 274 276 278 280
259 258 258 257 256 255 254 254 254 253 253 253 252 250 249 248 248 248 247 247 247 250 251 251 251 251 252 252 252 252 253 253 255 262 265 266 266 267 269 269 270 270 271 268 266 268 271 271 272 272 272 272 272 273 273 273 273 274 275 275 273 280
258 257 257 256 255 254 254 253 253 252 252 252 251 250 249 248 248 248 247 246 248 250 251 251 251 251 251 251 252 252 252 251 251 253 261 264 265 266 267 268 268 269 270 271 269 269 266 269 271 272 271 272 271 271 271 271 271 273 273 273 271 269
258 258 257 256 255 254 254 253 252 252 252 251 250 249 247 247 248 249 247 247 248 250 252 251 250 250 250 250 251 252 251 250 250 250 251 255 262 264 265 265 267 268 268 269 270 271 271 270 270 271 271 271 271 270 269 269 269 271 272 270 264 263
258 257 256 255 254 253 253 252 252 252 251 249 249 248 247 246 246 247 246 246 248 249 249 250 249 249 250 250 251 251 250 250 250 250 251 251 252 254 258 262 264 265 266 268 268 269 270 270 270 270 270 270 270 269 268 266 263 269 269 267 261 261
257 256 255 254 253 253 252 251 251 251 249 248 246 246 246 246 247 246 249 252 252 250 251 250 251 250 250 251 251 249 250 250 251 251 251 250 250 251 251 252 254 259 264 263 264 267 269 269 269 269 269 269 269 268 266 263 257 256 257 259 260 261
256 255 255 254 253 252 252 251 251 251 249 247 246 246 246 245 245 247 248 249 249 250 248 248 247 250 248 248 249 249 250 250 250 250 250 251 251 251 251 251 253 253 259 264 264 267 268 267 267 268 267 267 267 266 264 254 254 254 255 257 259 260
Wind_Speed
14 13 12 9 9 9 9 8 7 5 4 4 4 4 3 3 2 3 3 4 5 4 5 6 6 6 7 7 8 8 9 10 10 11 10 12 11 12 13 12 13 14 11 13 13 12 14 15 12 12 12 10 13 13 14 12 12 13 14 14 12 13
13 14 13 12 10 8 7 8 6 6 5 4 3 2 2 2 3 3 5 5 5 5 5 6 6 7 7 7 8 9 10 10 11 11 13 13 10 12 12 12 14 14 15 13 15 17 15 19 15 14 14 13 13 14 15 15 14 15 16 14 13 12
11 10 10 10 8 7 7 7 7 6 5 4 3 4 3 3 3 4 5 4 4 4 6 7 6 8 7 8 8 10 10 11 11 11 12 11 12 12 11 14 14 15 16 17 16 18 18 16 20 14 16 16 17 15 15 17 16 18 17 17 18 14
10 8 7 7 9 8 7 6 6 5 5 5 3 2 3 3 4 4 5 3 3 4 6 6 6 7 7 8 9 10 10 11 11 11 11 11 12 9 13 13 14 15 15 17 15 20 19 16 19 18 17 17 18 18 15 15 17 18 18 16 17 14
10 10 10 10 11 9 8 7 6 6 5 4 3 3 3 3 5 4 3 3 4 5 6 6 7 7 8 9 9 9 10 10 12 11 12 12 12 12 12 15 14 16 17 18 20 19 19 19 19 16 18 18 18 19 18 17 18 18 17 17 17 16
8 10 11 11 10 9 8 7 6 5 4 4 3 3 4 4 4 3 2 3 4 5 6 6 7 8 8 9 9 11 11 11 11 10 12 12 13 14 13 13 17 16 17 20 17 20 20 19 19 20 17 19 19 19 19 18 18 17 18 18 16 16
13 13 12 11 10 8 7 7 6 5 4 3 3 3 3 3 2 2 2 3 6 6 6 7 7 8 9 10 10 11 11 11 11 11 12 13 13 12 14 16 13 16 18 16 20 19 20 19 19 20 20 18 18 19 19 19 18 18 18 19 18 18
11 10 11 10 10 9 8 6 6 5 4 4 3 3 3 2 1 2 2 3 5 6 7 8 9 9 10 10 11 11 11 11 11 11 11 11 14 17 14 12 16 16 19 19 18 20 22 20 20 20 20 19 18 18 18 18 18 19 19 18 18 18
14 13 11 11 10 8 7 7 6 5 4 4 3 2 2 1 1 2 3 4 6 7 7 7 8 9 9 10 10 10 10 10 11 12 13 12 13 13 15 18 17 19 17 17 20 21 20 22 20 19 19 19 19 18 19 18 18 18 17 17 16 16
12 12 12 11 10 8 7 6 6 5 4 4 3 2 1 1 1 2 4 5 6 7 7 7 8 9 9 10 10 10 11 11 11 12 12 13 15 16 18 15 17 16 16 20 19 20 20 19 19 19 18 17 17 18 18 18 18 17 18 18 17 17
15 13 12 11 10 10 8 7 6 4 3 3 2 1 1 1 2 4 4 5 6 7 7 8 7 8 9 10 9 10 11 11 12 12 13 14 15 14 14 18 19 21 22 18 18 20 18 17 17 14 14 16 17 16 17 17 18 16 16 17 17 17
13 13 13 12 11 10 9 7 6 5 4 3 2 1 1 2 2 3 4 5 7 7 8 8 8 8 9 9 10 10 11 11 12 12 13 14 14 15 17 16 16 19 18 20 21 18 17 16 13 18 28 26 19 18 17 15 16 15 15 15 16 17
13 12 14 13 12 11 9 7 6 5 4 3 2 1 1 1 2 2 4 6 7 7 8 7 7 8 9 9 9 9 10 12 11 12 12 13 14 15 15 17 20 17 17 19 18 19 17 17 16 27 27 29 31 24 19 18 16 16 15 15 16 16
16 16 16 13 11 10 9 8 7 6 4 4 2 1 1 1 1 3 5 6 7 7 7 7 7 7 8 8 9 10 10 11 11 12 13 14 16 15 14 16 16 17 17 16 18 18 18 17 24 30 30 30 30 27 20 17 15 14 13 13 14 15
19 16 13 11 11 10 9 9 7 6 5 4 3 2 0 1 2 4 5 6 6 6 6 5 6 7 7 8 9 9 10 11 11 12 14 15 14 14 16 17 18 18 17 17 19 19 19 18 25 30 31 30 30 30 25 16 16 14 14 13 15 15
11 11 12 11 10 9 8 8 7 5 5 4 3 1 1 1 3 4 6 6 6 6 6 5 5 6 7 8 9 9 10 11 12 12 12 12 14 15 15 16 18 17 17 17 18 18 19 20 25 31 31 30 30 30 26 14 15 15 15 16 15 14
13 12 12 11 11 9 9 8 5 6 5 4 3 1 1 1 3 5 5 6 6 5 4 5 6 7 8 9 9 10 10 11 12 13 11 12 14 15 15 16 17 17 17 18 18 18 19 18 30 31 33 31 31 30 27 14 11 13 13 14 13 13
19 17 14 10 10 8 7 7 6 6 5 3 3 2 1 2 4 5 5 4 4 4 5 5 6 7 8 9 10 10 10 10 12 13 13 12 13 13 13 13 13 16 17 16 16 16 18 19 30 31 31 31 29 31 18 11 10 13 12 13 14 13
14 15 14 13 10 10 7 7 6 6 5 4 3 2 2 3 3 5 5 4 4 4 5 6 7 7 8 9 10 11 11 12 13 12 11 13 13 14 13 14 14 14 15 17 16 17 17 18 25 31 32 30 30 24 14 13 9 9 12 13 12 13
14 14 16 14 10 8 7 7 7 6 5 4 4 3 3 3 4 4 4 5 3 4 5 6 6 7 8 9 10 11 11 10 11 10 10 12 14 14 14 14 14 14 14 16 17 17 17 18 25 33 30 29 29 26 17 14 8 8 10 11 12 11
17 16 13 13 12 8 8 7 7 6 5 5 4 3 2 3 4 3 3 4 4 4 4 5 5 7 7 8 10 10 12 12 12 11 11 10 11 13 12 12 13 14 13 14 16 24 23 18 22 27 26 29 30 24 15 14 10 7 8 9 10 11
16 14 12 11 10 9 9 8 6 4 5 5 4 3 3 4 3 3 4 4 3 3 4 4 5 6 7 10 10 10 10 10 10 11 11 11 10 11 12 12 13 16 15 15 15 16 16 16 16 18 28 30 30 29 19 13 12 7 10 9 8 7
11 13 12 11 11 10 9 7 6 6 4 5 3 4 4 3 2 3 3 3 3 3 4 4 4 7 7 7 9 10 10 9 10 12 12 12 11 11 12 13 14 15 15 14 15 14 14 14 15 19 30 29 29 29 25 13 14 11 8 9 9 8
11 12 11 10 11 9 8 7 7 6 5 4 4 4 3 2 2 1 2 2 3 4 4 5 5 5 6 8 9 10 10 9 9 9 11 10 11 13 14 14 14 15 15 14 12 15 16 13 19 19 25 28 29 29 31 18 14 16 12 10 9 10
12 11 12 10 9 8 8 8 8 7 5 4 5 3 3 2 1 1 1 2 3 4 5 5 5 6 5 7 9 10 12 10 9 9 10 11 11 12 13 15 16 15 15 14 14 14 13 16 17 24 21 26 29 31 30 29 22 26 17 12 9 10
11 11 10 9 8 8 8 8 8 7 6 6 4 4 3 2 0 1 1 1 3 4 5 6 6 6 5 7 9 9 10 10 10 9 9 10 10 11 12 14 12 13 13 17 19 16 14 16 15 19 25 23 30 30 29 28 29 28 17 14 12 11
14 12 11 9 9 7 7 6 8 8 7 5 4 4 3 2 0 1 1 3 3 4 5 6 6 6 6 6 7 9 9 10 9 9 8 8 9 11 11 11 12 14 14 13 14 15 17 18 17 15 19 29 28 28 29 29 29 28 26 16 11 12
11 12 13 9 8 7 6 5 6 8 6 6 4 4 2 2 2 2 3 3 3 4 5 7 9 8 7 7 6 7 8 9 9 9 10 9 9 11 11 8 12 13 15 14 15 16 19 19 17 16 17 18 20 23 27 30 27 26 26 23 16 21
12 11 12 12 9 7 7 6 5 5 5 6 5 3 3 3 3 3 2 3 3 3 4 5 6 9 10 8 6 6 7 8 8 9 9 9 10 8 8 9 15 15 12 17 17 16 18 18 17 18 16 14 16 15 17 18 17 22 21 14 12 13
12 13 12 10 9 8 7 6 6 6 6 5 5 4 4 3 3 3 2 2 3 3 4 4 7 8 9 10 9 7 6 6 7 8 9 10 11 9 11 11 12 12 15 12 14 17 17 17 14 14 18 19 19 17 15 15 15 14 13 14 13 12
11 12 12 10 9 8 7 7 6 6 7 5 5 5 5 5 3 3 2 1 2 4 3 3 3 5 6 9 11 10 6 6 7 8 8 9 8 10 12 10 11 11 13 10 12 14 15 14 14 17 27 24 29 24 20 18 17 16 16 19 25 18
13 13 12 10 9 8 8 8 7 6 6 5 5 4 6 5 4 3 3 2 3 3 4 4 4 4 5 6 7 10 14 12 14 10 9 9 16 22 21 19 13 15 12 11 12 13 16 17 19 32 36 34 33 33 32 29 29 27 24 29 33 17
12 16 13 9 8 8 8 8 7 6 6 5 5 4 7 6 5 4 3 2 3 3 3 4 5 5 5 5 6 5 5 12 15 16 17 18 20 20 21 21 23 25 25 18 12 15 29 31 34 35 35 35 34 33 33 32 30 29 30 32 23 8
13 13 13 10 9 9 8 8 7 6 5 4 4 4 7 6 6 5 2 2 1 2 3 2 3 5 5 6 5 4 5 5 7 14 19 20 19 20 21 21 23 25 26 27 25 20 15 27 34 35 34 35 35 35 34 33 30 29 31 29 26 15
10 9 9 9 10 9 8 8 7 7 6 5 4 6 8 5 5 5 2 1 1 1 3 3 3 3 5 6 6 6 5 5 7 8 11 16 20 20 18 19 23 25 26 27 28 29 29 28 30 35 35 35 34 36 33 32 29 27 32 32 19 13
11 9 9 9 10 8 8 8 7 7 6 5 5 5 6 5 5 4 3 2 1 1 2 3 3 4 5 5 5 5 6 6 5 7 8 10 13 15 16 18 22 23 26 25 28 27 32 31 32 33 34 34 34 35 35 29 19 31 31 24 13 14
15 11 9 10 9 7 7 7 7 6 5 7 8 8 7 6 5 3 2 2 1 0 1 2 2 4 4 5 4 5 6 6 7 6 7 8 10 11 12 13 15 19 23 20 22 26 31 31 31 33 33 33 33 34 35 30 22 20 18 17 14 13
12 8 9 8 7 7 8 7 7 6 6 8 7 8 7 6 4 3 2 1 1 0 0 2 2 3 5 5 5 4 5 6 6 7 7 7 7 8 9 11 11 12 18 26 24 27 29 31 31 30 31 31 34 33 32 20 16 15 15 12 11 11
Wind_Direction
191 186 179 172 171 170 165 155 150 146 158 170 170 206 219 230 237 251 257 251 258 261 276 284 287 281 280 284 289 294 292 292 292 291 288 291 291 292 293 292 292 293 293 291 289 289 292 292 285 281 275 270 273 272 272 264 259 261 263 260 257 259
189 183 173 170 166 161 159 146 141 153 168 166 185 197 213 235 251 253 259 258 258 275 282 281 280 283 285 292 299 296 293 289 293 292 293 290 290 289 288 290 293 295 296 294 293 294 295 294 293 293 286 280 270 271 273 274 267 263 260 260 250 253
183 181 169 164 161 154 147 147 156 162 159 175 181 196 218 226 239 238 246 253 260 276 283 287 289 291 294 296 295 294 293 294 291 291 289 292 287 292 291 293 294 296 297 298 296 295 296 294 293 292 286 284 281 278 276 275 271 269 268 266 264 256
177 167 157 151 149 152 151 153 140 151 172 178 185 186 206 226 241 233 247 250 266 277 286 288 289 292 297 296 296 294 294 292 293 293 294 288 290 292 294 295 298 298 298 295 293 295 295 291 290 290 286 282 281 279 278 276 271 269 268 265 262 256
175 166 157 157 159 162 160 158 161 170 174 172 186 188 224 221 234 236 246 271 284 288 290 295 297 300 299 297 296 293 294 293 294 294 291 293 297 298 295 298 297 298 298 296 296 294 293 293 288 286 284 283 282 280 279 280 280 273 268 264 260 259
161 160 166 167 164 160 167 166 162 164 166 174 183 211 229 229 231 238 263 282 288 293 298 300 302 302 298 298 298 296 296 296 294 295 295 300 303 300 298 299 300 296 297 294 291 293 290 291 288 284 282 281 280 279 277 276 275 279 279 275 262 253
176 179 170 167 167 165 164 163 165 164 173 170 196 222 222 231 236 267 288 296 301 303 305 303 303 301 300 295 288 283 286 288 292 296 297 297 296 298 306 302 296 296 294 292 292 293 291 288 287 284 281 279 277 278 276 274 273 271 270 271 274 277
177 169 171 168 168 166 164 164 162 162 167 185 195 212 232 249 255 285 305 312 309 305 296 296 295 294 293 296 297 294 293 295 302 304 305 303 303 307 298 296 298 297 298 293 292 293 291 286 283 281 280 278 277 275 273 271 269 270 269 270 271 268
187 179 168 168 165 164 165 161 159 161 168 184 196 204 223 251 299 317 321 312 301 294 285 286 297 298 294 288 289 292 296 300 304 307 307 306 301 299 303 303 300 299 291 290 292 288 289 288 281 278 277 277 275 273 272 270 269 269 270 269 267 262
178 174 170 163 166 159 157 156 155 162 168 183 185 190 199 281 345 322 317 307 298 288 289 295 296 297 294 294 299 303 306 309 311 310 308 309 309 307 302 296 296 291 291 291 289 289 284 283 283 279 275 271 270 270 268 267 267 267 269 268 264 262
183 174 168 168 160 162 158 153 151 148 161 157 176 174 150 40 333 319 311 300 288 286 292 299 300 292 294 301 304 307 310 312 312 311 311 308 306 299 295 298 297 295 294 288 289 286 283 282 278 276 273 273 270 267 266 265 262 260 265 267 261 255
175 173 168 167 169 162 157 156 157 162 166 172 166 156 50 51 326 320 309 296 290 292 296 297 295 300 304 308 313 314 315 315 315 313 310 304 299 299 296 288 290 294 292 295 296 293 289 282 280 275 275 276 274 272 269 264 259 255 257 268 275 266
176 171 173 175 166 162 157 154 153 150 160 169 165 126 95 45 321 303 290 284 287 294 295 296 299 305 309 313 314 317 319 318 316 313 309 306 305 301 298 300 300 301 303 301 301 300 296 291 283 281 281 282 281 280 276 271 266 260 260 265 270 276
181 180 178 168 160 154 153 150 152 157 167 166 144 120 88 350 297 284 276 276 282 285 292 297 302 307 312 318 319 320 319 315 315 313 312 311 309 305 303 303 303 305 304 302 300 299 297 295 294 293 289 286 285 283 279 275 270 263 257 256 262 266
185 178 163 156 157 154 152 147 151 164 161 141 122 90 77 285 271 277 274 274 276 284 294 296 307 313 319 323 321 318 317 316 315 316 316 313 310 310 311 310 309 308 308 304 302 299 296 294 294 296 294 291 288 287 283 276 271 265 261 261 263 263
167 164 160 152 146 135 124 140 147 140 125 118 118 148 208 273 284 270 272 275 279 288 294 307 318 323 325 323 320 319 320 321 318 315 310 308 314 313 310 309 308 308 309 308 304 301 297 294 293 296 298 297 293 290 290 276 269 262 255 257 258 261
160 148 143 138 129 126 132 136 133 124 115 126 148 175 165 261 271 274 272 280 285 289 303 324 331 332 328 324 322 321 319 319 316 317 316 316 316 314 314 315 313 310 308 305 302 301 298 294 295 299 301 301 298 295 293 281 266 264 262 257 246 249
168 157 134 122 123 127 129 130 127 123 124 145 155 148 220 244 261 266 277 286 291 309 328 337 338 333 328 325 324 322 317 318 320 317 318 315 311 309 308 305 301 301 303 301 301 300 298 295 299 302 303 303 302 303 300 282 259 257 258 259 261 253
138 130 129 132 129 136 129 128 125 124 138 148 161 160 224 239 253 263 281 282 299 326 338 341 336 331 326 324 322 321 321 320 318 316 316 311 310 310 309 305 303 300 300 302 303 305 299 295 300 307 308 307 307 310 308 300 262 246 250 256 260 262
122 120 127 124 127 122 119 126 131 135 146 153 161 176 219 227 245 267 278 288 308 334 342 337 331 325 323 321 319 317 314 309 307 307 312 309 311 311 309 306 303 300 299 301 304 304 302 302 304 306 307 309 313 317 313 303 273 237 243 251 248 253
125 122 123 126 125 129 124 126 131 141 151 154 167 190 214 232 250 269 287 303 323 332 334 328 324 317 314 314 312 313 312 313 313 308 307 304 303 302 302 303 303 302 302 301 303 306 306 296 296 301 308 314 316 316 312 310 293 251 242 243 251 254
119 120 127 130 131 128 129 130 138 148 150 154 164 195 216 229 244 277 294 306 318 325 325 322 314 310 311 313 311 307 306 307 308 309 309 308 304 302 304 304 304 304 307 309 308 308 300 293 296 306 316 317 316 317 318 313 309 271 261 249 242 251
121 131 134 133 133 134 135 140 142 151 151 156 173 209 212 226 255 280 296 313 321 323 321 317 307 309 308 304 304 304 307 310 310 310 310 311 309 305 305 307 307 309 310 313 309 303 304 302 310 314 317 316 316 318 321 315 312 300 260 257 248 239
114 113 115 123 131 134 142 146 149 140 148 163 201 204 204 218 250 280 309 329 325 317 315 312 311 308 309 308 308 311 309 307 303 303 308 306 308 309 311 312 315 317 316 313 311 315 307 310 322 319 315 316 318 319 319 318 308 308 304 284 239 244
129 129 131 133 133 138 147 148 140 140 148 185 196 182 192 220 233 318 324 329 322 327 319 316 320 321 317 312 311 311 308 309 310 310 307 307 309 313 315 319 323 323 321 322 323 320 318 326 324 321 318 318 320 320 319 317 316 315 314 306 277 247
122 125 129 134 140 145 150 157 136 143 164 190 170 177 176 202 315 340 340 334 334 328 325 323 325 320 315 314 313 308 303 310 315 315 314 313 315 321 323 322 320 331 331 333 328 329 330 328 323 320 320 319 320 321 322 322 319 316 309 303 296 286
135 129 129 139 142 148 149 149 137 149 177 174 162 188 185 186 156 95 23 10 341 335 323 324 327 325 321 318 311 310 310 311 320 319 318 319 323 326 319 313 333 339 330 322 322 323 332 333 328 321 318 319 320 324 325 323 320 317 313 306 294 284
114 127 133 139 148 147 145 139 149 159 168 159 166 175 168 162 130 70 32 9 352 333 332 340 334 329 325 320 307 297 299 307 319 320 320 326 328 328 319 307 338 339 338 333 328 328 332 332 330 325 321 317 326 327 326 324 321 317 312 305 289 282
131 139 142 143 156 149 141 147 164 160 145 162 164 164 162 154 110 83 39 13 345 333 354 357 340 330 324 321 312 296 298 312 313 317 320 324 322 299 291 322 343 338 335 338 331 330 332 335 334 329 322 327 331 329 328 328 323 320 317 307 297 291
140 145 147 145 151 145 143 156 161 157 157 159 156 162 150 121 93 82 40 355 353 353 355 358 332 330 318 316 319 315 306 303 307 319 327 331 327 317 332 337 338 334 320 327 330 332 334 336 333 332 334 337 336 334 330 329 323 320 320 318 311 298
142 145 143 138 140 142 151 162 157 162 165 158 160 162 133 109 91 95 60 21 22 6 5 349 319 315 309 311 318 313 307 308 317 326 315 319 310 329 336 336 338 333 330 330 334 328 335 334 338 338 340 338 338 337 335 333 331 326 323 317 311 299
137 141 135 131 138 147 155 159 159 163 157 154 157 156 130 117 113 95 69 48 33 13 1 347 331 311 306 305 310 317 322 324 340 338 331 322 337 342 345 349 345 346 338 335 337 339 348 339 337 339 343 344 343 342 342 341 337 334 335 330 322 299
146 120 122 132 143 152 158 157 159 157 155 158 156 146 134 126 108 92 75 51 36 15 0 335 321 316 309 303 301 300 315 324 327 339 348 344 341 343 347 350 350 350 351 352 341 342 352 347 346 347 348 349 350 348 349 349 344 346 349 349 340 297
154 151 143 142 150 157 157 153 154 152 149 150 147 139 126 129 117 103 94 77 42 12 353 317 310 311 315 315 305 308 325 323 326 324 335 347 348 344 345 349 353 353 353 354 354 351 351 352 353 353 352 354 356 355 353 353 349 357 2 2 15 21
145 129 132 142 153 152 157 145 148 148 153 153 153 136 119 127 114 121 107 101 54 17 332 323 314 315 312 309 314 328 332 331 333 334 328 333 342 344 348 352 354 355 355 354 353 355 2 359 357 356 357 358 360 0 357 354 351 1 12 14 19 8
123 124 137 145 155 153 147 142 146 153 149 150 149 134 128 126 131 131 140 137 130 18 326 318 311 317 306 294 307 319 329 327 329 327 327 331 333 342 345 349 355 355 351 353 354 356 2 0 359 359 360 1 3 2 1 355 350 9 14 21 15 3
123 132 149 147 149 147 142 141 145 139 140 149 139 129 120 124 122 137 119 100 56 83 305 310 319 311 295 301 320 327 331 326 326 331 338 342 340 339 338 336 336 344 349 352 351 354 1 360 360 1 1 3 5 6 1 5 14 5 353 1 5 3
125 133 146 149 150 143 135 138 142 146 145 143 146 128 124 124 120 116 110 104 63 355 238 310 303 304 293 294 316 322 320 314 326 338 338 334 332 330 330 329 337 330 334 348 351 356 359 358 359 1 4 6 8 7 9 11 359 358 354 346 351 348